Mountain Home, Arkansas, United States (72653)
Lat: 36.34N, Lon: 92.39W
Wx Zone: ARZ005
Local Info
Past Weather Observations for Sunday, December 14, 2014

NOTE: This archive is for the closest National Weather Service station to Mountain Home. Information may differ from the station used for current weather conditions.

Click here for Long-term Archive

Time Weather Temperature Dewpoint Humidity Pressure Winds Precip Visibility
23:53
Overcast
55°F / 13°C 48°F / 9°C 77% 29.89 in
(1012 mb)
SE 10.4 mph
(SE 17 kph)
- 9SM
22:53
Overcast
54°F / 12°C 48°F / 9°C 82% 29.89 in
(1012 mb)
SE 10.4 mph
(SE 17 kph)
- 9SM
21:53
Overcast
54°F / 12°C 48°F / 9°C 82% 29.89 in
(1012 mb)
SE 11.5 mph
(SE 19 kph)
- 9SM
20:53
Partly Cloudy
54°F / 12°C 48°F / 9°C 82% 29.92 in
(1013 mb)
SE 8.1 mph
(SE 13 kph)
- 9SM
19:53
Clear
55°F / 13°C 46°F / 8°C 72% 29.95 in
(1014 mb)
SE 5.8 mph
(SE 9 kph)
- 9SM
18:53
Clear
55°F / 13°C 46°F / 8°C 72% 29.95 in
(1014 mb)
SE 8.1 mph
(SE 13 kph)
- 9SM
17:53
Partly Cloudy
57°F / 14°C 46°F / 8°C 67% 29.98 in
(1015 mb)
SE 8.1 mph
(SE 13 kph)
- 9SM
16:53
Partly Cloudy
57°F / 14°C 46°F / 8°C 67% 29.98 in
(1015 mb)
SE 8.1 mph
(SE 13 kph)
- 8SM
15:53
Clear
61°F / 16°C 48°F / 9°C 63% 29.98 in
(1015 mb)
S 8.1 mph
(S 13 kph)
- 8SM
14:53
Partly Cloudy
63°F / 17°C 48°F / 9°C 59% 29.98 in
(1015 mb)
SSE 9.2 mph
(SSE 15 kph)
- 8SM
13:53
Clear
63°F / 17°C 50°F / 10°C 64% 30.01 in
(1016 mb)
S 11.5 mph
(S 19 kph)
- 8SM
12:53
Partly Cloudy
61°F / 16°C 50°F / 10°C 68% 30.01 in
(1016 mb)
SE 10.4 mph
(SE 17 kph)
- 8SM
12:10
Partly Cloudy
57°F / 14°C 52°F / 11°C 82% 30.04 in
(1017 mb)
SE 10.4 mph
(SE 17 kph)
- 7SM
12:03
Mostly Cloudy
57°F / 14°C 50°F / 10°C 77% 30.06 in
(1018 mb)
SSE 11.5 mph
(SSE 19 kph)
- 7SM
11:53
Partly Cloudy
Hazy
55°F / 13°C 50°F / 10°C 82% 30.06 in
(1018 mb)
SE 8.1 mph
(SE 13 kph)
- 6SM
11:39
Mostly Cloudy
Hazy
55°F / 13°C 52°F / 11°C 88% 30.06 in
(1018 mb)
ESE 8.1 mph
(ESE 13 kph)
- 6SM
10:53
Overcast
Fog And Mist
52°F / 11°C 50°F / 10°C 94% 30.09 in
(1019 mb)
SE 9.2 mph
(SE 15 kph)
- 4SM
10:32
Overcast
Fog And Mist
50°F / 10°C 50°F / 10°C 100% 30.12 in
(1020 mb)
SE 8.1 mph
(SE 13 kph)
- 3SM
10:11
Overcast
Fog And Mist
50°F / 10°C 50°F / 10°C 100% 30.12 in
(1020 mb)
ESE 8.1 mph
(ESE 13 kph)
- 2SM
09:53
Overcast
Fog And Mist
50°F / 10°C 50°F / 10°C 100% 30.12 in
(1020 mb)
ESE 4.6 mph
(ESE 7 kph)
- 1 1/4SM
09:24
Overcast
Fog And Mist
48°F / 9°C 48°F / 9°C 100% 30.12 in
(1020 mb)
E 8.1 mph
(E 13 kph)
- 1SM
08:53
Overcast
Fog And Mist
48°F / 9°C 48°F / 9°C 100% 30.12 in
(1020 mb)
SE 8.1 mph
(SE 13 kph)
- 1 1/2SM
08:24
Overcast
Fog And Mist
48°F / 9°C 48°F / 9°C 100% 30.12 in
(1020 mb)
SE 8.1 mph
(SE 13 kph)
- 1SM
07:53
Overcast
Fog And Mist
46°F / 8°C 46°F / 8°C 100% 30.12 in
(1020 mb)
SE 5.8 mph
(SE 9 kph)
- 3/4SM
07:45
Overcast
Fog
46°F / 8°C 46°F / 8°C 100% 30.12 in
(1020 mb)
SE 6.9 mph
(SE 11 kph)
- 1/2SM
07:33
Obscured
Fog
46°F / 8°C 46°F / 8°C 100% 30.12 in
(1020 mb)
SE 6.9 mph
(SE 11 kph)
- 1/4SM
06:53
Obscured
Fog
46°F / 8°C 46°F / 8°C 100% 30.12 in
(1020 mb)
ESE 5.8 mph
(ESE 9 kph)
- 1/4SM
05:53
Obscured
Fog
46°F / 8°C 46°F / 8°C 100% 30.09 in
(1019 mb)
E 5.8 mph
(E 9 kph)
- 1/4SM
05:29
Obscured
Fog
46°F / 8°C 46°F / 8°C 100% 30.12 in
(1020 mb)
E 5.8 mph
(E 9 kph)
- 1/4SM
05:12
Obscured
Fog
46°F / 8°C 46°F / 8°C 100% 30.12 in
(1020 mb)
E 5.8 mph
(E 9 kph)
- 1/2SM
04:53
Obscured
Fog
46°F / 8°C 46°F / 8°C 100% 30.12 in
(1020 mb)
E 4.6 mph
(E 7 kph)
0.00 in
(0.00 mm)
1/4SM
03:53
Obscured
Fog
45°F / 7°C 45°F / 7°C 100% 30.12 in
(1020 mb)
E 4.6 mph
(E 7 kph)
- 1/4SM
03:24
Obscured
Fog
43°F / 6°C 43°F / 6°C 100% 30.12 in
(1020 mb)
ENE 5.8 mph
(ENE 9 kph)
- 1/4SM
03:15
Obscured
Fog
43°F / 6°C 43°F / 6°C 100% 30.12 in
(1020 mb)
NE 3.5 mph
(NE 6 kph)
- 1/2SM
03:13
Partly Cloudy
Fog And Mist
45°F / 7°C 45°F / 7°C 100% 30.12 in
(1020 mb)
NE 3.5 mph
(NE 6 kph)
- 1SM
03:07
Partly Cloudy
Fog And Mist
46°F / 8°C 46°F / 8°C 100% 30.12 in
(1020 mb)
E 3.5 mph
(E 6 kph)
- 2 1/2SM
02:53
Partly Cloudy
Fog And Mist
46°F / 8°C 46°F / 8°C 100% 30.12 in
(1020 mb)
SE 4.6 mph
(SE 7 kph)
- 3SM
02:35
Partly Cloudy
Fog And Mist
46°F / 8°C 46°F / 8°C 100% 30.12 in
(1020 mb)
SE 3.5 mph
(SE 6 kph)
- 3SM
01:53
Mostly Cloudy
Fog And Mist
46°F / 8°C 46°F / 8°C 100% 30.12 in
(1020 mb)
SE 4.6 mph
(SE 7 kph)
- 3SM
01:51
Partly Cloudy
Fog And Mist
46°F / 8°C 46°F / 8°C 100% 30.12 in
(1020 mb)
SE 4.6 mph
(SE 7 kph)
- 3SM
01:10
Mostly Cloudy
Fog And Mist
46°F / 8°C 46°F / 8°C 100% 30.12 in
(1020 mb)
SE 5.8 mph
(SE 9 kph)
- 3SM
01:03
Partly Cloudy
Fog And Mist
46°F / 8°C 46°F / 8°C 100% 30.12 in
(1020 mb)
SE 5.8 mph
(SE 9 kph)
- 2 1/2SM
00:53
Clear
Fog And Mist
46°F / 8°C 46°F / 8°C 100% 30.12 in
(1020 mb)
SE 5.8 mph
(SE 9 kph)
- 3SM
Time Weather Temperature Dewpoint Humidity Pressure Winds Precip Visibility


Weather for websites

WeatherForYou.com, LLC is not responsible for any damages or problems caused by this service. Current weather conditions are obtained from the closest station including government and personal stations which may have varying degrees of accuracy. Weather forecasts are derived from the NOAA NDFD. Like all things, this site belongs to Jesus Christ... He just trusts me to maintain it. If you have any questions or comments email webmaster@weatherforyou.com

Copyright © 2014, WeatherForYou.com LLC. All rights reserved.